Regional Weather Roundup
Issued by NWS

Home | Current Version | Previous Version | Text Only | Print | Product List | Glossary Off
Versions: 1 2 3 4 5 6 7 8 9 10 11 12 13 14 15 16 17 18 19 20 21 22 23 24 25 26 27 28 29 30 31 32 33 34 35 36 37 38 39 40 41 42 43 44 45 46 47 48 49 50

210
ASUS44 KJAN 191203
RWRMS

MISSISSIPPI HOURLY WEATHER ROUNDUP
NATIONAL WEATHER SERVICE JACKSON MS
700 AM CDT SUN APR 19 2015

NOTE: "FAIR: INDICATES FEW OR NO CLOUDS BELOW 12,000 FEET WITH NO
SIGNIFICANT WEATHER AND/OR OBSTRUCTIONS TO VISIBILITY.

MSZ001>002-007>008-010>013-018>021-025>028-034>036-191300-
NORTHWEST MISSISSIPPI

CITY           SKY/WX    TMP DP  RH WIND       PRES   REMARKS
CLARKSDALE     CLOUDY    66  66 100 S13       29.70R
CLEVELAND      CLOUDY    65  65 100 SW12      29.72S THUNDER
GREENWOOD      HVY RAIN  65  61  87 SW17G25   29.74R FOG
6HR MIN TEMP:  65; 6HR MAX TEMP:  66; 6HR PCP:  0.44;

GREENVILLE     LGT RAIN  65  63  93 N13       29.64F FOG
6HR MIN TEMP:  63; 6HR MAX TEMP:  68; 6HR PCP:  0.09;

OLIVE BRANCH   RAIN      63  63 100 S7        29.68R FOG
OXFORD         CLOUDY    63  63 100 SW6       29.72R FOG
TUNICA         LGT RAIN  64  64 100 SW12      29.68S
$$

MSZ003>006-009-014>017-022>024-029>033-037>039-191300-
NORTHEAST MISSISSIPPI

CITY           SKY/WX    TMP DP  RH WIND       PRES   REMARKS
COLUMBUS AFB   MOCLDY    65  65 100 S6        29.72S
6HR MIN TEMP:  64; 6HR MAX TEMP:  65; 6HR PCP:  0.63;

CORINTH        CLOUDY    66  64  94 SW7       29.69R
GOLDN TRIANGLE MOCLDY    64  61  88 SW7       29.72S
STARKVILLE     PTSUNNY   63  63 100 SW6       29.72F
TUPELO         MOCLDY    64  62  93 SW6       29.71R
6HR MIN TEMP:  64; 6HR MAX TEMP:  66; 6HR PCP:  0.39;

$$

MSZ040-058-191300-
CENTRAL MISSISSIPPI

CITY           SKY/WX    TMP DP  RH WIND       PRES   REMARKS
JACKSON INTL   CLOUDY    68  66  93 S3        29.73F
6HR MIN TEMP:  65; 6HR MAX TEMP:  68; 6HR PCP:  0.35;

JACKSON HAWKNS MOCLDY    68  66  93 S5        29.72F
6HR MIN TEMP:  64; 6HR MAX TEMP:  68; 6HR PCP:  0.35;

MERIDIAN KEY   CLOUDY    67  66  97 SW6       29.75F
6HR MIN TEMP:  65; 6HR MAX TEMP:  69; 6HR PCP:  0.77;

MERIDIAN NAS   CLOUDY    66  64  93 CALM      29.75F
6HR MIN TEMP:  65; 6HR MAX TEMP:  69; 6HR PCP:  1.89;

RAYMOND        PTSUNNY   68  63  83 S6        29.72F
VICKSBURG      CLOUDY    63  61  93 NW3       29.71F
6HR MIN TEMP:  63; 6HR MAX TEMP:  68; 6HR PCP:  1.26;

$$

MSZ059>079-191300-
SOUTH MISSISSIPPI

CITY           SKY/WX    TMP DP  RH WIND       PRES   REMARKS
BROOKHAVEN       N/A     66  66 100 S7        29.75F
HATTIESBURG    MOCLDY    71  67  87 W5        29.76F FOG
6HR MIN TEMP:  69; 6HR MAX TEMP:  71;

MCCOMB         PTCLDY    68  67  96 SW7       29.75F
6HR MIN TEMP:  68; 6HR MAX TEMP:  70; 6HR PCP:  0.09;

NATCHEZ        PTCLDY    64  61  88 SW10      29.73R
6HR MIN TEMP:  64; 6HR MAX TEMP:  70;

PINE BELT      PTCLDY    70 -20   2 SW6       29.75F
6HR MIN TEMP:  68; 6HR MAX TEMP:  70;

$$

MSZ080>082-191300-
COASTAL MISSISSIPPI

CITY           SKY/WX    TMP DP  RH WIND       PRES   REMARKS
BAY ST LOUIS   CLOUDY    70  66  88 MISG      29.76
BILOXI         CLOUDY    72  72 100 VRB1      29.75F
6HR MIN TEMP:  72; 6HR MAX TEMP:  73; 6HR PCP: TRACE;

PASCAGOULA     CLOUDY    72  70  93 W3        29.75S
6HR MIN TEMP:  69; 6HR MAX TEMP:  73; 6HR PCP: TRACE;

GULFPORT       CLOUDY    72  69  90 NW6       29.76S
6HR MIN TEMP:  72; 6HR MAX TEMP:  74;

$$



USA.gov is the U.S. government's official web portal to all federal, state and local government web resources and services.